FW1793 Weather Reports


time (UTC)temp
C
wind
direction
speed
KPH
gust
KPH
rain 1hr
cm
rain 24hr
cm
rain mn
cm
humidity
%
barometer
mb
20260506102544 6 187 4.8 6.4 0.00 0.03 0.03 99 1010.2
20260506101518 6 241 4.8 8.0 0.00 0.03 0.03 98 1010.4
20260506100527 6 180 3.2 6.4 0.00 0.03 0.03 98 1010.1
20260506095522 6 187 3.2 6.4 0.00 0.03 0.03 98 1010.3
20260506094516 6 174 3.2 6.4 0.00 0.03 0.03 97 1010.3
20260506093525 6 166 4.8 6.4 0.00 0.03 0.03 97 1010.4
20260506092520 6 157 3.2 4.8 0.00 0.03 0.03 96 1010.5
20260506091529 6 169 6.4 8.0 0.00 0.03 0.03 96 1010.7
20260506090523 6 178 4.8 8.0 0.00 0.03 0.03 95 1010.7
20260506085518 6 190 6.4 8.0 0.00 0.03 0.03 94 1010.7
20260506084528 6 180 1.6 6.4 0.03 0.03 0.03 93 1010.5
20260506083522 6 179 4.8 6.4 0.03 0.03 0.03 93 1010.1
20260506082530 6 165 4.8 8.0 0.03 0.03 0.03 92 1010.2
20260506081525 6 163 6.4 9.7 0.03 0.03 0.03 91 1010.0
20260506080518 6 135 3.2 4.8 0.03 0.03 0.03 90 1010.2
20260506072545 7 135 0.0 3.2 0.00 0.00 0.00 87 1010.6
20260506071521 7 195 1.6 4.8 0.00 0.00 0.00 86 1010.6
20260506070531 7 164 1.6 3.2 0.00 0.00 0.00 85 1010.5
20260506061530 6 145 3.2 4.8 0.00 0.00 0.00 81 1010.9
20260506060521 6 135 1.6 3.2 0.00 0.00 0.00 80 1010.9
20260506050517 6 198 0.0 3.2 0.00 0.00 0.00 76 1011.1
20260506044542 7 127 0.0 3.2 0.00 0.00 0.00 74 1011.0
20260506043527 7 90 1.6 3.2 0.00 0.00 0.00 74 1011.2
20260506042604 7 0.0 0.0 0.00 0.00 0.00 73 1011.1
20260506041528 7 0.0 0.0 0.00 0.00 0.00 72 1011.0
20260506040523 7 0.0 0.0 0.00 0.00 0.00 71 1011.0
20260506035531 7 0.0 0.0 0.00 0.00 0.00 70 1010.9
20260506034545 7 135 0.0 3.2 0.00 0.00 0.00 68 1010.7
20260506033533 7 135 0.0 3.2 0.00 0.00 0.00 63 1010.8
20260506032648 7 0.0 1.6 0.00 0.00 0.00 63 1010.9
20260506031520 7 0.0 1.6 0.00 0.00 0.00 62 1010.9
20260506030528 7 0.0 1.6 0.00 0.00 0.00 60 1010.8
20260506025543 8 0.0 1.6 0.00 0.00 0.00 58 1010.9
20260506024517 8 0.0 1.6 0.00 0.00 0.00 55 1010.9
20260506023548 8 0.0 1.6 0.00 0.00 0.00 53 1010.9
20260506022522 8 180 1.6 3.2 0.00 0.00 0.00 53 1010.9
20260506021631 8 180 3.2 4.8 0.00 0.00 0.00 52 1010.7
20260506020527 8 180 0.0 3.2 0.00 0.00 0.00 50 1010.3
20260506015527 8 0.0 1.6 0.00 0.00 0.00 49 1010.1
20260506014519 8 234 1.6 3.2 0.00 0.00 0.00 49 1009.9
20260506013528 8 180 0.0 3.2 0.00 0.00 0.00 48 1009.7
20260506012523 9 135 0.0 3.2 0.00 0.00 0.00 47 1009.7
20260506011550 9 278 1.6 6.4 0.00 0.00 0.00 46 1009.4
20260506010525 9 170 3.2 6.4 0.00 0.00 0.00 46 1009.6
20260506005518 9 204 1.6 3.2 0.00 0.00 0.00 45 1009.4
20260506004526 9 252 1.6 3.2 0.00 0.00 0.00 45 1009.3
20260506003521 9 265 4.8 9.7 0.00 0.00 0.00 44 1009.3
20260506002550 9 256 4.8 6.4 0.00 0.00 0.00 45 1009.2
20260506001523 10 218 4.8 8.0 0.00 0.00 0.00 44 1009.3
20260506000518 10 239 3.2 6.4 0.00 0.00 0.00 44 1009.1
20260505235549 10 320 4.8 8.0 0.00 0.00 0.00 44 1009.2
20260505234521 10 255 4.8 11.3 0.00 0.00 0.00 43 1009.3
20260505233531 10 259 9.7 19.3 0.00 0.00 0.00 43 1009.0
20260505232523 10 323 6.4 16.1 0.00 0.00 0.00 44 1009.1
20260505231518 10 265 6.4 17.7 0.00 0.00 0.00 44 1009.0
20260505230526 10 244 4.8 9.7 0.00 0.00 0.00 43 1008.8
20260505225542 10 234 4.8 8.0 0.00 0.00 0.00 42 1008.8
20260505224530 10 285 9.7 19.3 0.00 0.00 0.00 42 1008.9
20260505223524 10 260 6.4 11.3 0.00 0.00 0.00 43 1008.8
20260505222520 10 272 9.7 19.3 0.00 0.00 0.00 42 1008.6
20260505221546 10 273 8.0 12.9 0.00 0.00 0.00 44 1008.4
20260505220521 10 334 8.0 12.9 0.00 0.00 0.00 49 1008.3
20260505215529 10 276 8.0 17.7 0.00 0.00 0.00 54 1008.3
20260505214523 10 273 6.4 12.9 0.00 0.00 0.00 59 1008.3
20260505213518 10 245 6.4 14.5 0.00 0.00 0.00 61 1008.2
20260505212526 10 194 4.8 6.4 0.00 0.00 0.00 61 1008.1
20260505211522 10 267 8.0 12.9 0.00 0.00 0.00 60 1008.3
20260505210530 11 265 11.3 30.6 0.00 0.00 0.00 54 1008.3
20260505205525 11 325 11.3 32.2 0.00 0.00 0.00 51 1007.9
20260505204519 12 291 16.1 30.6 0.00 0.00 0.00 47 1007.4
20260505203534 13 279 14.5 27.4 0.00 0.00 0.00 46 1007.0
20260505202522 13 245 11.3 24.1 0.00 0.00 0.00 45 1006.8
20260505201517 13 300 12.9 24.1 0.00 0.00 0.00 43 1006.6
20260505200528 13 264 14.5 27.4 0.00 0.00 0.00 41 1006.4
20260505195521 13 272 12.9 19.3 0.00 0.00 0.00 41 1006.1
20260505194552 14 273 14.5 27.4 0.00 0.00 0.00 43 1006.0
20260505193546 14 254 14.5 20.9 0.00 0.00 0.00 45 1005.9
20260505192520 15 244 16.1 27.4 0.00 0.00 0.00 45 1005.8
20260505191530 15 265 12.9 20.9 0.00 0.00 0.00 48 1005.6
20260505190524 14 288 8.0 16.1 0.00 0.00 0.00 48 1005.6
20260505185520 14 290 9.7 20.9 0.00 0.00 0.00 49 1005.6
20260505184527 15 289 11.3 22.5 0.00 0.00 0.00 51 1005.6
20260505183544 15 246 11.3 24.1 0.00 0.00 0.00 54 1005.6
20260505182533 15 230 11.3 17.7 0.00 0.00 0.00 54 1005.3
20260505181525 15 249 14.5 25.7 0.00 0.00 0.00 55 1005.3
20260505180519 15 257 14.5 20.9 0.00 0.00 0.00 58 1005.1
20260505175527 15 245 9.7 24.1 0.00 0.00 0.00 60 1005.0
20260505174521 15 252 11.3 25.7 0.00 0.00 0.00 62 1004.9
20260505173531 15 262 12.9 20.9 0.00 0.00 0.00 63 1004.8
20260505172627 15 274 11.3 19.3 0.00 0.00 0.00 65 1004.6
20260505171519 15 255 12.9 20.9 0.00 0.00 0.00 65 1004.3
20260505170530 15 235 11.3 20.9 0.00 0.00 0.00 66 1004.4
20260505165544 15 256 11.3 20.9 0.00 0.00 0.00 67 1004.2
20260505164533 15 232 9.7 24.1 0.00 0.00 0.00 67 1004.2
20260505163526 16 280 14.5 24.1 0.00 0.00 0.00 67 1003.8
20260505162541 16 248 12.9 20.9 0.00 0.00 0.00 67 1003.7
20260505161529 16 259 22.5 37.0 0.00 0.00 0.00 66 1003.8
20260505160523 17 238 16.1 33.8 0.00 0.00 0.00 64 1003.6
20260505152531 18 219 19.3 29.0 0.00 0.00 0.00 61 1002.4
20260505151524 19 244 19.3 29.0 0.00 0.00 0.00 61 1001.9
20260505150521 18 243 19.3 27.4 0.00 0.00 0.00 63 1001.7
20260505140528 17 225 16.1 25.7 0.00 0.00 0.00 63 1001.9
20260505124525 17 204 14.5 24.1 0.00 0.00 0.00 68 1001.1
20260505123518 16 214 11.3 16.1 0.00 0.00 0.00 73 1001.1
20260505122525 15 195 8.0 12.9 0.00 0.00 0.00 75 1001.0
20260505121518 15 220 8.0 12.9 0.00 0.00 0.00 76 1001.2
20260505120527 15 174 4.8 6.4 0.00 0.00 0.00 77 1001.1
20260505115518 15 180 3.2 6.4 0.00 0.00 0.00 77 1001.2
20260505114527 14 190 6.4 9.7 0.00 0.00 0.00 77 1000.9
20260505113518 14 180 9.7 16.1 0.00 0.00 0.00 77 1000.9
20260505112528 14 173 9.7 17.7 0.00 0.00 0.00 77 1001.1
20260505111520 14 179 6.4 12.9 0.00 0.00 0.00 78 1000.9
20260505110526 14 179 8.0 11.3 0.00 0.00 0.00 79 1001.0